Location: Peterborough
(44.3091°N, 78.3197°W)
Time: 07:27:17
(UTC-04:00)

Vanguard 1 Rocket - Pass Details

Date: 26 March 2023
Orbit: 655 x 4220 km, 34.3° (Epoch: 04 June)

Event Time Altitude Azimuth Distance (km) Brightness Sun altitude
Rises 18:57:36 0° 168° (SSE) 8,245 12.2 5.5°
Maximum altitude 19:16:22 10° 129° (SE) 7,333 11.5 2.1°
Drops below altitude 10° 19:16:55 10° 128° (SE) 7,320 11.5 2.0°
Enters shadow 19:32:24 - 92° (E) 7,493 11.3 -0.7°
Sets 19:33:05 0° 90° (E) 7,527 - -0.9°
